Sugarloaf Regional (B21)
Carrabassett, ME
Field Elevation: 885
Lat: 45°05.12N  Long: 70°12.98W
CTAF/Unicom Freq: 122.8000
   
    
Weather Advisories
7/30/2014 00:54 Z
Altimeter 29.96" Hg
Wind 360° @ 0 KT
Gusts --
Visibility 10 SM
Temperature 13° C (55° F)
Dewpoint 12° C (54° F)
Relative Humidity 93%
Density Altitude --
Condensation Altitude 1,400 feet
  Wind and Runways
Indicated Runway = 35
History
 
 
More Info
All DigiWx sites map
 
NOAA Forecast
 
Airport IQ 5010
(39N) Princeton, NJ
(PN44) Upper Gwynedd Heliport
 
about DigiWx
 
FAA Disclaimer: The data displayed is for advisory purposes only and is not to be used for flight planning or operations. For official data, please call (not available) to hear the current automated AWOS voice message.
  METAR B21 300054Z AUTO 36000KT 10SM 13/12 A2996